sat.trackr.live / text

‹ back to catalog

2025-292A

NORAD 66993 · 2025-292A

PAYLOAD ACTIVE UNKNOWN

§ Identity

Operator
Country
PRC
Launch date
2025-12-10
Launch site
JSC
Launch vehicle
Mass (kg)
RCS (m²)

External: N2YO · Heavens-Above · Gunter

§ Orbital elements

Epoch: 2026-09-20T22:47:55.365504Z

Period
95.56 min
Inclination
97.6242°
Eccentricity
0.0015575
Mean motion
15.06907687 rev/d
Perigee alt
534.9 km
Apogee alt
556.4 km
Semi-major
6,923.8 km
B*
1.6236e-4
RAAN
338.7329°
Arg perigee
37.8651°
Mean anomaly
322.3669°
Rev number
4,286

§ Raw data

2025-292A1 66993U 25292A   26263.94994636  .00002368  00000+0  16236-3 0  99912 66993  97.6242 338.7329 0015575  37.8651 322.3669 15.06907687 42863

JSON: /api/v1/satellites/66993 · /tle

For live sub-satellite position, see the globe view (requires WebGL).

§ Visibility from observer

Set your observer location to see the next 7 days of passes ≥ 10°. The values pass through the URL so the page stays shareable.

No JS? Fill the form by hand. The geolocation button needs JavaScript.

§ Radio — SatNOGS DB

ModeDescriptionDownlinkUplink
CW Mode U - Transmitter 437.719 MHz

1 transmitter · refreshed weekly from db.satnogs.org